GFSCGP_925_spd_189.txt.gz
Wind_Speed
8 10 13 15 15 5 13 9 8 5 4 11 13 8 12 16 15 16 16 16 17 18 22 24 24 24 21 20 20 20 18 17 14 11 8 7 7 7 7 9 7 6 9 13
6 18 18 10 9 6 10 8 8 2 6 9 5 11 10 18 18 18 18 17 17 17 16 22 25 25 24 24 23 22 23 21 20 14 12 9 7 6 9 9 7 6 8 12
21 16 12 12 11 11 9 10 7 5 7 4 2 7 10 14 14 16 17 17 17 18 17 17 23 25 25 25 25 25 29 26 24 21 15 13 10 9 8 6 6 6 9 11
14 8 17 14 16 13 13 12 6 8 7 4 4 4 7 15 18 19 19 19 19 19 18 17 22 24 26 27 25 25 29 32 28 23 17 15 11 10 7 7 8 9 10 13
16 16 18 19 20 17 9 8 10 7 6 2 5 6 4 6 15 22 22 22 21 20 20 20 23 25 26 24 24 24 28 31 34 27 23 17 16 13 11 10 12 12 12 11
16 2 12 20 13 17 11 9 6 5 2 6 10 9 9 7 14 18 21 22 21 20 20 19 24 24 24 24 23 23 24 30 32 30 26 23 19 17 14 13 12 10 9 9
16 7 5 8 16 14 13 11 3 4 5 6 2 6 15 9 8 12 24 24 22 20 19 18 18 23 24 25 25 23 23 26 26 26 25 24 25 22 19 17 14 12 11 10
15 15 13 13 17 13 22 17 9 8 6 5 3 6 4 3 5 15 15 21 21 21 19 19 20 25 25 26 26 25 23 24 25 25 26 25 26 20 19 17 15 12 11 10
13 16 16 11 12 17 13 12 13 4 1 4 3 5 13 1 0 12 15 19 21 21 20 20 21 25 25 25 27 27 25 24 25 24 24 26 27 25 20 20 18 14 14 9
9 10 13 19 9 14 14 18 10 5 7 7 5 6 9 10 2 11 16 19 19 19 19 17 18 24 24 25 25 25 26 26 24 23 23 25 26 26 24 21 19 16 12 9
11 6 11 16 17 17 9 14 6 12 4 8 5 7 5 10 4 15 17 18 19 18 18 17 17 23 23 23 23 24 25 25 23 23 24 26 25 23 21 20 18 15 9 7
13 7 8 17 22 15 21 17 19 12 7 2 3 6 2 6 3 15 16 16 16 18 18 17 18 22 22 23 23 24 24 25 26 26 26 26 21 19 19 19 16 11 9 10
6 11 9 8 6 11 19 17 21 14 8 11 12 6 1 3 2 13 17 15 13 15 16 15 14 18 23 24 24 25 25 27 24 23 23 21 19 20 18 15 12 11 14 14
6 6 19 14 20 18 23 20 17 21 12 12 15 16 14 8 3 10 14 14 14 15 16 16 15 13 21 23 24 25 26 27 24 23 23 22 22 21 17 14 14 15 17 17
4 10 11 21 2 17 18 25 21 22 21 19 18 14 16 12 6 11 15 14 15 15 16 17 17 15 22 23 25 26 28 26 26 25 24 25 21 18 16 16 17 18 19 19
10 2 3 19 21 10 18 18 27 24 22 17 16 18 16 11 7 6 9 14 17 18 20 20 18 17 21 26 28 28 27 27 27 26 26 23 21 20 20 20 22 22 21 22
6 6 3 16 18 20 23 23 16 22 26 25 22 23 10 9 10 13 14 15 18 20 20 19 21 19 25 29 30 30 28 23 27 27 26 24 24 23 23 23 24 25 25 26
8 8 4 3 11 22 17 19 21 14 17 22 22 15 19 15 14 14 12 16 16 18 18 18 18 22 31 29 28 27 28 33 32 29 28 26 25 24 24 25 25 25 27 30
17 6 4 4 14 7 12 7 22 18 21 17 20 17 12 11 5 11 14 16 18 16 16 19 32 36 34 31 31 30 28 29 29 29 29 28 28 27 27 27 26 25 29 31
15 15 8 3 8 14 13 13 9 17 20 18 19 18 14 7 9 10 12 14 16 15 14 17 26 26 24 26 26 27 25 27 29 28 27 26 27 26 27 26 26 25 31 30
7 8 15 13 5 7 9 15 12 17 7 16 20 18 17 13 10 12 7 9 11 11 14 16 21 27 30 26 29 27 25 28 25 23 23 24 24 25 26 26 24 25 28 29
9 11 7 8 8 11 6 2 13 6 8 9 17 19 15 17 14 14 12 10 8 10 10 19 20 22 23 28 29 24 26 23 25 25 24 24 25 26 27 28 26 25 27 30
4 2 2 8 6 5 11 12 14 15 11 13 13 16 18 18 15 14 13 12 11 10 10 17 19 18 19 26 29 25 23 27 27 26 24 25 26 26 29 32 29 27 28 31
1 4 2 4 4 14 23 12 7 14 14 16 16 15 18 14 15 13 8 10 10 10 11 18 21 19 19 22 23 22 27 27 27 26 27 27 27 27 26 26 27 28 29 26
4 6 5 5 8 21 3 15 18 20 19 19 15 13 16 14 10 10 8 10 10 10 13 17 17 17 19 21 22 25 27 29 28 27 27 27 25 28 28 22 23 28 30 30
4 7 5 3 11 11 16 18 23 20 22 20 16 14 14 14 12 11 10 8 10 11 15 16 17 18 20 23 23 25 28 31 31 29 28 28 29 28 26 28 28 24 24 24

GFSCGP_925_spd_192.txt.gz
Wind_Speed
19 14 19 20 17 17 7 8 8 4 3 10 11 8 15 16 17 19 21 20 21 21 23 25 24 23 21 20 20 19 17 14 11 11 10 8 8 6 5 3 2 2 4 6
18 22 23 20 18 16 14 11 11 4 3 11 8 10 10 18 20 18 20 21 22 21 20 24 26 26 25 24 23 22 20 16 14 12 9 7 4 5 5 5 3 1 3 6
27 22 23 21 17 17 16 14 10 11 6 12 9 14 13 17 18 18 19 20 21 22 22 22 27 28 27 26 26 24 22 18 17 14 11 8 6 7 6 5 3 1 3 6
27 24 24 23 23 20 19 14 11 7 10 8 5 8 14 18 21 21 20 21 21 22 22 21 26 28 28 28 27 25 23 21 18 17 15 12 10 8 5 4 2 2 3 5
21 26 22 22 26 23 19 6 11 10 11 12 11 7 6 16 16 23 23 22 21 22 23 23 26 28 29 28 28 26 25 23 22 20 18 15 14 11 10 7 5 5 4 3
22 16 21 28 25 23 18 8 9 9 11 11 15 8 8 12 16 20 23 23 22 22 22 22 28 28 28 28 27 26 25 24 23 24 20 19 15 13 10 8 7 7 5 5
21 23 17 17 25 21 19 17 10 10 10 11 6 7 15 4 5 9 23 25 24 22 22 22 23 27 28 29 28 27 26 25 24 24 24 21 19 17 14 12 11 8 8 6
20 22 23 17 26 20 26 23 13 11 12 12 7 8 6 2 3 6 13 25 24 23 21 22 24 29 30 29 29 27 26 24 23 24 24 22 20 18 16 14 13 10 9 8
20 29 28 22 21 26 24 25 23 13 9 11 11 11 12 14 2 7 15 24 25 24 22 23 24 30 30 30 30 29 27 25 24 23 22 22 20 19 17 14 12 12 10 9
14 17 19 27 19 25 24 22 21 12 18 14 13 10 8 9 3 8 15 23 24 22 22 21 20 28 29 29 29 28 27 26 24 23 22 21 20 19 17 16 16 14 10 9
23 16 22 22 21 23 20 20 20 19 15 12 12 12 13 3 4 11 16 21 23 23 21 20 19 26 27 27 28 28 27 26 25 24 23 21 20 19 18 18 16 14 11 9
26 13 15 27 26 26 27 23 26 16 20 14 10 7 8 2 3 11 18 19 20 21 20 19 19 24 26 26 27 27 27 27 26 24 23 22 20 19 20 19 16 14 12 11
15 14 16 19 23 26 27 28 25 24 17 20 14 7 7 5 5 12 18 19 19 19 20 19 18 19 24 26 26 26 27 26 25 24 24 23 21 22 21 18 16 15 14 14
7 16 23 20 24 23 28 27 28 28 19 19 20 19 12 4 8 11 17 19 18 18 19 19 18 16 23 25 26 26 26 26 25 25 24 23 24 23 20 17 17 16 16 16
5 17 21 25 19 23 26 29 29 28 28 24 19 23 15 6 3 9 12 16 19 20 20 20 20 18 24 25 26 26 26 27 27 26 25 25 23 21 20 20 19 18 18 17
11 9 16 21 23 13 28 30 29 28 28 26 26 19 20 12 4 7 14 16 18 20 21 21 21 20 23 27 28 28 28 28 27 27 26 25 23 22 22 21 21 20 19 19
7 4 9 19 21 21 19 26 30 27 27 27 25 23 16 13 10 10 12 16 19 20 20 21 22 21 28 31 31 30 29 27 27 27 25 24 24 24 24 23 23 22 21 20
8 7 6 11 20 27 18 20 21 24 28 27 25 23 22 15 13 14 11 11 17 20 21 21 20 24 29 31 32 32 30 29 28 27 28 27 26 24 23 24 23 23 22 22
14 8 5 9 16 15 21 21 23 20 19 18 24 26 21 16 19 19 14 12 13 17 17 20 28 31 29 31 32 30 30 30 30 31 29 27 26 26 26 27 27 25 23 22
18 14 9 7 17 24 13 20 8 18 21 21 19 19 18 20 12 13 16 17 16 16 17 20 25 25 28 31 29 29 31 32 32 32 30 28 27 26 27 28 29 25 23 22
14 12 15 12 9 10 3 12 15 19 12 18 21 20 20 19 15 15 14 15 16 15 16 19 21 25 32 31 33 31 29 32 31 25 24 25 26 27 28 27 29 26 25 24
13 11 10 13 13 12 10 8 15 6 15 14 9 22 21 21 20 19 17 12 13 12 13 20 20 21 23 28 32 29 30 28 25 25 25 26 27 26 27 31 29 27 27 27
8 11 9 11 13 2 7 11 13 11 13 14 16 18 12 20 24 24 19 19 17 16 13 18 18 17 22 27 31 30 32 27 28 28 27 26 26 26 30 32 31 28 28 28
6 1 5 1 8 7 12 10 13 13 16 16 15 18 17 17 20 23 20 17 15 15 14 18 17 18 20 26 28 26 24 28 30 29 27 27 28 28 30 28 29 28 29 28
4 3 1 10 6 17 7 18 18 18 17 19 18 17 18 17 19 20 18 15 14 12 16 17 17 17 20 22 24 26 29 31 30 29 28 28 27 29 29 27 27 26 26 30
5 6 2 5 11 9 14 17 20 20 20 20 19 20 17 17 18 15 15 13 10 10 16 17 18 19 20 22 25 27 30 32 32 31 29 30 29 28 28 24 19 23 24 26

GFSCGP_925_spd_195.txt.gz
Wind_Speed
20 17 20 23 23 22 12 18 15 11 11 4 10 6 19 18 16 18 18 20 19 18 22 23 24 23 23 21 21 21 18 15 13 11 11 9 10 7 4 2 1 0 3 5
21 23 24 23 24 24 26 26 8 6 7 5 14 12 14 21 20 21 20 21 23 22 18 20 25 25 25 24 23 22 20 16 15 12 10 7 7 5 2 1 1 1 1 4
27 27 24 24 24 23 19 16 11 12 4 11 14 14 15 22 20 19 21 22 22 23 23 20 23 28 27 26 26 24 22 19 16 13 11 7 5 4 5 6 6 5 1 4
27 27 26 26 27 24 22 17 14 10 9 12 5 13 16 18 20 21 20 22 23 24 24 24 27 29 30 28 26 25 24 21 18 16 13 12 10 9 6 4 3 2 2 3
25 28 27 25 27 25 21 20 16 13 14 16 19 8 7 19 19 21 21 22 22 23 23 26 27 32 31 29 28 27 25 23 20 19 16 13 12 9 7 7 4 4 5 3
23 23 29 31 25 27 22 20 11 12 14 14 18 13 13 19 19 21 22 22 22 23 23 23 30 31 30 30 29 28 26 25 23 20 18 16 12 12 8 8 7 6 4 4
22 28 25 26 28 25 26 21 11 13 13 14 10 15 4 24 7 18 23 24 23 22 23 23 23 27 30 31 30 29 28 27 25 24 22 19 18 13 11 9 9 7 6 6
21 20 30 21 24 25 23 25 13 19 16 14 14 9 7 33 7 13 19 23 23 23 22 23 25 29 31 32 31 30 29 26 26 25 24 22 19 17 16 14 12 10 9 7
23 26 29 26 25 25 27 25 23 24 9 10 3 19 14 10 13 5 13 24 25 23 23 23 24 31 32 32 32 31 28 27 25 25 24 23 22 20 17 15 13 12 11 10
26 19 26 28 24 27 30 21 22 18 18 3 11 15 12 16 10 10 10 23 24 23 22 22 22 29 31 32 32 30 29 27 26 24 23 23 22 21 19 15 15 13 11 9
28 23 21 23 26 26 22 24 21 22 19 7 12 20 17 13 9 2 12 20 23 23 22 21 21 29 30 31 31 31 29 28 26 25 24 23 22 21 20 19 17 16 13 11
21 24 18 29 24 29 28 28 26 17 23 15 7 12 20 13 9 6 14 19 21 21 21 20 20 27 29 29 30 31 30 29 27 25 24 24 22 22 21 21 18 16 15 13
9 22 17 23 26 27 28 30 28 23 21 21 7 12 20 11 6 12 17 18 19 20 21 20 20 20 26 29 29 30 29 30 28 26 26 25 24 23 23 21 20 18 16 14
9 17 23 20 22 23 29 28 28 28 19 20 17 3 12 10 10 16 18 19 20 20 20 20 19 17 23 26 26 27 28 29 28 28 28 27 26 26 24 22 22 19 18 16
10 17 23 28 25 24 27 30 28 30 25 25 20 24 31 14 12 15 18 18 20 19 21 20 19 17 22 25 25 27 27 29 29 29 29 28 27 26 24 23 22 20 18 16
9 15 21 25 26 23 25 30 31 28 29 27 23 22 23 10 13 14 17 19 20 20 21 21 20 19 19 26 28 29 29 30 30 30 30 28 28 26 25 23 22 20 17 13
11 13 18 22 24 26 22 28 31 28 28 27 26 17 25 27 14 16 13 18 19 20 20 20 21 20 26 30 32 31 31 30 31 29 29 28 27 26 26 24 23 21 24 25
10 8 11 16 20 28 12 19 21 27 26 27 23 22 21 12 13 12 16 17 18 19 20 20 19 22 29 30 32 31 31 31 31 30 29 29 28 27 25 25 25 24 30 24
15 9 7 13 18 14 21 20 19 24 27 26 25 25 17 19 11 13 13 14 20 20 18 18 26 26 25 29 30 33 31 32 32 33 33 32 30 28 27 28 27 27 27 25
17 13 10 9 17 28 18 21 14 16 18 21 25 23 24 17 16 12 16 11 10 10 16 17 27 27 28 29 31 31 31 32 34 36 36 33 32 32 31 29 28 27 27 23
17 14 15 12 9 12 17 19 20 19 9 10 15 14 16 16 13 14 11 10 14 14 15 18 21 21 28 32 32 31 33 34 42 33 33 34 35 33 29 27 28 30 26 23
20 13 12 14 12 15 11 6 1 7 9 12 12 3 15 16 18 16 16 16 11 14 13 16 16 18 22 26 32 32 33 42 31 30 31 31 30 29 27 29 30 31 26 25
17 18 11 14 14 7 13 12 14 13 12 12 12 11 11 11 16 20 18 16 16 14 10 15 16 17 20 25 32 32 42 30 31 31 31 31 30 29 28 32 32 29 29 26
11 5 17 10 19 13 9 12 14 15 13 13 13 15 13 11 13 15 13 16 16 14 13 20 19 16 20 26 32 38 27 30 31 31 31 30 30 29 27 31 32 29 29 28
4 11 12 10 15 10 11 12 15 16 15 16 16 15 14 14 15 15 15 14 14 14 17 19 16 18 21 23 27 27 28 32 33 32 31 30 29 32 30 28 31 29 30 31
3 6 4 5 10 9 11 14 15 17 16 18 19 19 18 16 16 16 16 14 14 15 17 14 17 17 19 22 24 26 28 32 33 31 31 32 31 30 30 29 24 24 26 29

GFSCGP_925_spd_198.txt.gz
Wind_Speed
21 17 18 22 21 18 7 8 11 21 18 22 6 19 24 23 20 21 19 19 22 21 17 23 21 22 25 22 23 20 15 19 17 15 11 12 16 9 7 3 3 2 4 8
21 23 24 23 24 15 15 7 25 19 14 12 6 18 27 25 23 23 24 21 24 23 20 21 19 23 28 25 23 22 19 18 17 13 15 10 10 10 7 9 5 2 1 5
26 27 26 24 24 23 20 22 27 22 20 15 9 11 24 25 21 23 21 22 21 25 25 21 22 22 26 27 28 26 21 20 19 15 12 5 2 5 2 3 6 6 1 3
26 28 27 26 26 23 22 24 25 16 11 12 13 9 3 22 23 24 24 22 23 22 21 21 21 24 25 28 28 27 24 22 21 17 15 12 8 9 14 13 13 7 4 3
25 29 28 29 27 23 22 24 19 17 10 14 12 10 13 23 23 23 25 25 24 23 23 23 24 27 28 27 29 28 29 23 22 19 14 16 14 11 5 5 7 4 8 7
28 23 29 28 26 24 22 25 23 15 12 14 18 15 13 12 15 22 22 24 25 25 23 24 31 34 31 28 29 30 30 28 24 23 22 14 16 14 6 11 6 8 13 11
25 28 28 28 27 27 23 22 14 13 14 13 18 16 6 16 6 16 22 23 23 23 22 24 24 30 34 31 31 32 32 29 28 22 22 23 16 13 11 5 7 7 9 4
21 21 28 21 31 25 26 23 15 17 15 16 7 10 1 21 18 32 28 23 23 23 21 22 25 28 32 29 31 31 33 31 29 27 24 22 24 16 14 10 12 11 10 5
19 27 21 29 25 27 25 21 23 25 21 6 8 6 9 21 20 17 21 24 23 22 22 22 21 28 31 31 31 31 33 32 31 29 27 26 23 23 19 18 18 15 15 10
26 22 27 24 28 26 29 18 20 17 23 11 3 4 13 11 16 17 16 25 23 22 21 21 20 27 28 30 30 30 30 33 31 29 28 27 26 25 25 18 16 16 11 10
26 25 25 25 27 26 19 21 20 22 17 14 12 6 10 16 20 17 14 24 24 23 20 20 19 30 31 31 31 32 31 32 30 30 28 27 27 26 24 25 20 18 17 13
15 22 21 30 26 29 26 26 26 16 19 15 8 5 1 17 24 14 13 24 23 22 20 19 19 28 30 31 32 33 31 31 32 29 28 29 27 26 25 24 23 21 18 16
12 9 16 25 22 25 29 27 26 25 17 19 13 3 5 21 24 11 16 22 21 21 20 20 18 19 26 28 30 32 31 31 31 31 29 28 28 27 27 26 25 21 18 15
8 11 15 17 21 18 25 28 27 26 17 16 18 13 20 7 17 8 18 20 20 18 18 19 17 17 25 28 30 30 32 31 32 31 31 29 30 29 28 26 25 22 18 17
9 15 17 23 26 26 25 24 30 27 23 22 19 18 14 17 19 18 17 17 19 17 18 19 18 16 22 26 28 30 31 32 32 33 32 33 31 29 28 26 25 21 22 22
13 14 16 24 24 28 24 29 29 28 27 25 23 8 9 11 17 11 12 17 19 18 18 19 18 18 17 27 28 31 31 33 34 34 34 32 31 30 29 28 28 25 26 32
13 11 12 20 19 24 25 22 27 24 26 24 23 15 15 12 13 25 15 17 19 18 19 19 20 19 24 30 31 31 32 34 32 33 33 32 31 31 30 30 28 31 31 27
14 14 12 15 17 22 15 21 19 26 25 24 21 13 20 13 28 16 16 17 18 19 19 18 16 20 28 30 31 30 32 31 33 31 32 32 32 32 30 31 30 31 30 30
16 14 9 13 15 17 24 22 17 17 22 23 17 19 26 31 11 16 15 18 17 18 16 15 24 25 27 28 32 31 30 32 31 33 33 35 34 32 32 32 33 32 29 29
19 16 12 12 17 23 16 21 13 10 11 14 16 14 17 10 10 4 38 18 19 17 16 16 26 29 30 31 31 31 29 31 34 35 39 36 36 35 35 34 34 32 31 29
17 14 15 13 10 12 13 18 16 13 3 16 12 12 17 7 4 14 17 9 17 17 16 25 29 27 35 36 34 32 33 33 42 37 34 35 37 38 37 35 33 31 31 28
17 14 13 15 12 15 18 8 3 10 15 16 17 17 16 12 19 3 16 11 6 13 13 16 22 25 29 36 38 32 33 46 35 34 34 34 35 34 32 32 31 31 33 28
19 16 13 14 14 12 17 14 13 14 13 15 14 14 14 13 12 10 6 13 10 6 3 13 16 14 17 34 37 31 42 38 37 33 34 33 34 33 32 33 32 33 31 26
3 11 17 12 18 21 15 15 14 13 14 13 15 15 12 10 11 10 8 11 11 11 8 7 6 10 14 20 29 39 33 29 30 31 30 32 33 33 33 33 34 33 30 28
8 12 8 16 13 9 14 14 11 11 12 15 15 14 13 14 13 10 10 8 9 8 12 14 9 9 16 25 27 27 23 28 28 29 29 31 32 36 32 32 33 32 32 34
6 8 5 4 12 10 11 12 12 11 13 14 15 16 16 14 11 11 11 10 9 11 14 14 16 14 16 21 26 26 29 30 29 27 29 31 31 33 30 31 31 33 33 36

GFSCGP_925_spd_201.txt.gz
Wind_Speed
10 7 9 12 11 15 3 7 8 6 18 14 12 9 11 16 13 18 16 21 19 20 19 25 29 28 27 31 25 26 29 26 20 18 12 7 8 7 12 11 5 6 3 4
10 15 15 13 15 17 12 10 4 6 12 7 19 12 17 19 19 20 18 20 20 18 14 25 26 28 32 33 28 26 27 26 21 20 17 10 10 6 14 11 5 5 1 4
17 18 17 18 16 18 16 9 10 11 6 14 14 14 15 19 14 16 16 17 19 21 18 20 21 30 29 34 34 29 27 25 22 18 16 7 6 10 11 8 7 6 3 2
13 17 19 21 19 15 16 14 14 18 8 13 11 4 21 20 18 19 18 16 22 21 20 16 19 28 30 32 37 34 26 26 24 20 16 13 9 7 4 8 8 7 5 5
16 20 17 24 21 18 17 19 18 18 14 13 13 6 11 22 21 22 21 20 16 21 23 21 21 27 31 34 36 38 31 27 27 24 15 15 14 10 6 10 14 12 8 9
18 18 19 23 18 22 17 18 17 14 10 9 10 6 5 21 28 20 19 21 22 17 24 22 30 29 29 34 34 38 36 31 28 27 21 17 17 15 4 13 11 7 9 13
15 20 21 18 20 19 19 12 8 5 5 6 10 5 3 6 17 23 17 21 24 21 23 22 22 26 30 30 34 37 39 35 31 28 27 20 20 19 13 6 12 10 8 7
10 15 20 13 12 19 16 13 7 7 6 8 5 1 1 12 19 24 26 22 24 25 23 25 24 31 33 31 36 36 38 36 37 31 31 27 23 18 14 13 11 11 9 4
7 16 15 19 20 15 19 13 11 8 15 5 4 2 5 3 9 15 11 11 20 26 25 24 27 34 35 37 36 37 38 36 40 38 31 30 29 25 21 19 17 17 15 9
18 14 14 23 14 22 11 11 8 7 11 9 3 5 6 11 15 12 6 11 13 26 25 24 25 35 37 39 35 38 40 38 38 40 38 32 30 29 29 25 22 18 17 12
17 15 21 12 10 16 15 13 10 4 6 6 4 6 8 12 10 11 12 17 21 26 26 24 25 36 40 37 35 34 38 37 36 38 37 36 36 32 30 29 26 21 18 15
5 3 13 21 20 20 19 11 13 9 8 5 4 5 4 10 3 4 7 11 25 25 24 23 22 33 37 36 34 33 38 38 38 39 36 35 34 35 34 33 32 26 21 26
7 5 3 7 11 16 10 19 10 5 4 9 3 5 2 6 6 2 3 19 12 22 22 21 19 23 32 36 35 34 34 37 37 37 36 35 36 36 36 34 33 33 29 27
2 4 4 6 8 5 8 18 17 11 9 8 10 5 7 11 9 6 8 17 24 20 21 21 19 21 29 33 34 34 34 36 38 37 36 35 35 38 36 33 34 32 29 28
3 5 7 16 17 15 15 16 22 13 14 11 12 8 10 10 14 8 4 11 15 15 19 19 17 20 26 29 32 34 36 35 40 37 36 36 37 36 35 34 34 32 32 32
14 5 12 15 13 14 18 17 16 21 17 8 12 3 6 7 4 7 10 9 9 17 19 18 17 21 19 28 33 34 36 34 39 38 37 35 35 37 38 36 36 34 33 33
7 9 8 5 8 10 9 7 11 12 17 7 13 9 13 6 8 12 20 20 12 14 17 18 18 20 27 30 34 32 36 36 37 38 36 36 37 37 39 39 37 36 35 35
8 7 4 5 7 4 7 8 12 12 16 13 5 15 18 15 12 15 20 14 8 9 16 17 14 19 30 32 32 34 34 37 35 34 35 35 38 38 37 39 38 38 39 37
6 4 5 4 4 11 16 9 7 7 7 6 10 11 8 6 7 4 2 7 8 12 11 16 23 27 28 31 32 34 32 35 34 33 34 37 39 37 37 37 39 38 35 34
8 6 3 4 4 4 7 12 17 8 3 19 18 7 14 12 6 11 18 4 2 6 13 18 24 29 29 32 37 33 31 31 33 35 38 40 42 40 39 40 38 37 34 30
5 5 6 9 5 8 13 16 12 4 5 12 12 14 8 5 6 9 13 7 1 15 13 29 28 28 34 37 38 33 30 35 41 35 34 38 40 41 38 35 35 33 30 27
9 5 5 5 4 7 15 9 6 5 7 7 13 14 8 9 4 3 12 11 9 12 9 26 25 27 32 38 38 32 34 46 36 38 37 39 40 38 34 35 32 32 30 29
11 10 7 6 5 2 10 8 6 7 6 10 14 14 13 10 9 7 7 14 6 7 9 8 24 29 29 36 38 32 46 38 40 39 40 39 40 39 36 34 32 30 32 30
8 5 8 9 10 9 11 10 8 8 7 11 10 12 15 9 9 8 7 7 6 4 5 11 6 12 19 34 38 45 38 32 33 35 34 33 34 34 36 33 36 34 33 31
9 12 10 3 15 12 16 13 9 10 7 11 13 15 16 16 14 15 8 7 4 2 8 12 10 4 12 31 36 41 32 32 34 33 30 31 34 38 35 36 36 38 40 42
3 5 5 3 10 6 12 12 18 15 7 13 14 15 15 15 14 14 11 9 7 6 12 11 10 12 12 16 30 38 37 37 33 28 29 31 31 31 33 33 33 38 36 38

GFSCGP_925_spd_204.txt.gz
Wind_Speed
6 2 6 10 8 7 5 5 5 5 9 6 6 5 7 12 16 18 19 19 18 17 16 22 28 35 35 34 31 29 25 21 22 18 13 9 8 6 17 12 7 5 3 2
1 8 12 8 6 9 5 5 6 6 6 5 5 4 7 13 17 19 18 17 18 14 14 17 23 31 34 35 34 31 29 25 23 21 18 12 6 6 20 13 9 4 1 2
11 12 12 10 11 9 6 9 6 7 3 4 3 6 6 6 6 17 18 19 19 19 17 14 19 26 32 35 36 30 34 29 23 25 18 9 6 8 20 14 9 5 3 1
9 13 12 13 13 9 10 12 10 8 10 5 5 4 2 7 14 19 18 20 20 21 19 17 19 24 30 34 38 33 35 32 24 26 21 14 11 15 16 14 9 7 5 4
9 9 12 17 17 12 12 11 12 12 9 3 4 1 7 14 16 16 21 20 21 22 20 21 21 29 31 34 36 36 37 33 28 26 23 20 15 15 9 10 12 12 10 8
7 5 8 16 12 16 17 8 3 7 5 7 14 10 12 9 23 21 20 20 23 23 22 22 30 32 32 34 35 38 39 37 32 29 25 22 20 18 10 11 14 15 13 10
4 9 11 9 6 8 8 4 8 3 1 11 8 2 13 20 20 24 27 25 23 25 23 21 21 27 31 33 35 36 39 38 36 33 29 24 22 21 18 13 17 16 11 8
8 11 10 7 15 9 9 11 6 6 4 11 2 6 6 5 15 23 27 26 23 25 24 24 23 32 32 35 36 36 37 35 40 37 35 29 24 23 23 18 13 16 12 7
6 8 4 13 8 9 11 6 11 7 5 2 3 3 5 7 8 17 19 15 22 22 24 26 26 33 35 36 38 38 38 36 41 41 36 35 28 26 25 22 18 17 13 8
10 8 7 19 5 11 9 6 1 1 6 5 5 3 5 7 11 15 16 16 17 20 19 22 22 33 37 35 39 38 40 39 41 42 40 39 35 31 27 24 24 22 20 17
4 8 12 5 7 9 2 6 2 4 6 8 4 6 8 18 20 22 21 17 17 24 24 22 22 34 36 37 36 38 38 38 37 41 41 39 40 37 33 31 29 27 24 19
2 2 9 19 5 5 6 6 7 8 9 3 5 8 5 12 17 19 19 18 15 19 26 24 23 31 33 36 35 37 38 37 39 41 40 42 40 38 37 37 37 34 31 24
7 4 3 2 5 1 6 6 6 2 2 13 5 6 4 4 7 9 12 7 8 16 23 23 22 23 31 33 36 36 37 39 38 39 40 39 40 41 40 39 38 37 33 29
6 1 3 6 2 2 6 9 4 7 6 7 7 6 5 7 9 9 7 9 10 18 26 23 22 22 32 33 36 34 36 39 38 38 38 38 40 41 41 42 41 40 37 36
4 0 6 9 8 6 9 10 6 2 10 9 11 10 9 12 3 3 6 5 11 14 20 23 23 20 28 31 33 33 35 37 38 37 36 38 40 38 36 40 41 39 38 37
7 4 6 5 5 6 6 8 6 6 4 6 6 5 7 9 7 6 5 12 9 9 15 16 18 21 21 32 34 33 32 36 37 36 36 36 35 36 38 41 40 39 38 36
4 4 6 6 9 6 2 2 4 5 5 8 8 9 8 6 9 10 10 9 13 11 9 15 20 21 28 33 36 34 33 34 37 36 35 35 37 37 39 42 40 40 40 36
4 4 1 5 6 2 5 9 5 4 9 14 12 7 16 16 13 8 9 8 8 8 11 12 14 21 30 34 35 35 35 34 35 34 34 36 36 36 37 38 40 38 39 36
5 2 3 2 2 6 3 7 4 3 4 15 16 18 11 10 5 3 8 4 7 11 12 16 25 31 31 32 34 33 31 32 34 34 34 35 38 36 36 37 39 37 36 33
4 4 3 3 3 2 3 16 19 7 1 16 15 17 3 8 5 6 9 2 5 6 13 18 26 29 30 31 33 32 32 33 33 35 38 40 41 40 38 41 37 35 34 31
2 1 4 3 3 7 10 17 11 7 4 12 11 16 9 3 4 5 10 7 7 7 13 21 25 28 33 33 36 32 33 36 42 38 39 39 41 43 44 37 32 31 32 28
4 3 4 2 2 4 17 4 6 4 6 5 10 15 15 11 12 5 7 8 9 11 9 25 21 24 29 35 37 33 35 40 36 36 38 42 44 42 35 34 33 34 33 32
1 3 4 5 4 3 9 4 6 5 4 6 10 12 14 15 15 12 7 7 5 9 8 12 20 18 20 32 36 33 40 34 35 37 39 41 39 38 35 35 35 31 31 30
5 5 2 7 7 13 10 18 21 18 5 6 10 12 14 13 13 15 12 10 7 6 9 16 8 14 19 27 30 43 31 34 36 37 36 34 35 35 35 33 33 32 32 32
3 10 10 5 8 13 9 19 20 23 9 10 11 11 13 13 14 12 12 13 12 9 7 19 14 6 11 24 34 35 27 31 35 33 31 31 31 33 31 35 34 37 39 39
4 5 5 3 10 8 11 15 16 18 8 8 12 15 13 12 12 13 11 11 12 10 14 15 19 17 13 8 32 32 31 34 34 28 28 30 30 28 30 30 32 40 41 37